Weather History for Vandenberg AFB, CA

Change the Weather History Date:

Friday, November 9, 2012

  Actual Average Record
Temperature  
Mean Temperature 50 °F -  
Max Temperature 57 °F 62 °F 71 °F (2001)
Min Temperature 43 °F 47 °F 42 °F (1998)
Degree Days  
Heating Degree Days 15    
Moisture  
Dew Point 42 °F    
Average Humidity 73    
Maximum Humidity 87    
Minimum Humidity 55    
Precipitation  
Precipitation 0.14 in - - ()
Sea Level Pressure  
Sea Level Pressure 29.95 in    
Wind  
Wind Speed 7 mph (NNE)    
Max Wind Speed 20 mph    
Max Gust Speed 28 mph    
Visibility 9 miles    
Events Rain    
Averages and records for this station are not official NWS values.
T = Trace of Precipitation, MM = Missing Value Source: NWS Daily Summary

Daily Weather History Graph

Daily Weather History Graph

Search for Another Location

Airport:

Trip Planner

Search our weather history database for the weather conditions in past years. The results will help you decide how hot, cold, wet, or windy it might be!

Date:

Astronomy

Nov. 09, 2012 Rise Set
Actual Time 6:31 AM PST 5:00 PM PST
Civil Twilight 6:04 AM PST 5:27 PM PST
Nautical Twilight 5:34 AM PST 5:57 PM PST
Astronomical Twilight 5:04 AM PST 6:27 PM PST
Moon 1:46 AM PST (11/9) 2:07 PM PST (11/9)
Length of Visible Light 11h 22m
Length of Day
10h 29m
Waning Crescent, 22% of the Moon is Illuminated
Nov 9
Waning Crescent
Nov 13
New
Nov 20
First Quarter
Nov 28
Full
Dec 6
Last Quarter

Hourly Weather History & Observations

Time (PST) Temp. Windchill Dew Point Humidity Pressure Visibility Wind Dir Wind Speed Gust Speed Precip Events Conditions
12:55 AM 51.1 °F - 44.1 °F 77% 29.94 in 10.0 mi North 5.8 mph - N/A   Mostly Cloudy
1:55 AM 50.0 °F - 43.0 °F 77% 29.93 in 10.0 mi NNE 4.6 mph - N/A   Clear
2:55 AM 48.0 °F - 42.1 °F 80% 29.93 in 10.0 mi NE 3.5 mph - N/A   Mostly Cloudy
3:55 AM 46.9 °F - 42.1 °F 83% 29.93 in 10.0 mi Calm Calm - N/A   Partly Cloudy
4:55 AM 46.9 °F - 43.0 °F 86% 29.93 in 10.0 mi ENE 3.5 mph - N/A   Overcast
5:55 AM 46.9 °F - 43.0 °F 86% 29.93 in 10.0 mi SSE 3.5 mph - N/A   Scattered Clouds
6:55 AM 43.0 °F 39.5 °F 39.0 °F 86% 29.94 in 10.0 mi SSE 5.8 mph - N/A   Scattered Clouds
7:55 AM 52.0 °F - 45.0 °F 77% 29.95 in 10.0 mi ESE 4.6 mph - N/A   Mostly Cloudy
8:16 AM 53.6 °F - 44.6 °F 72% 29.97 in 10.0 mi East 4.6 mph - 0.00 in Rain Light Rain Showers
8:25 AM 53.6 °F - 44.6 °F 72% 29.97 in 10.0 mi ESE 4.6 mph - 0.00 in   Mostly Cloudy
8:55 AM 55.0 °F - 44.1 °F 67% 29.95 in 3.0 mi ESE 6.9 mph - 0.00 in Rain Light Rain Showers
9:05 AM 48.2 °F - 42.8 °F 82% 29.99 in 1.0 mi North 19.6 mph 27.6 mph 0.11 in Rain Rain Showers
9:06 AM 48.2 °F - 42.8 °F 82% 29.99 in 1.0 mi NNE 12.7 mph 27.6 mph 0.11 in Rain Rain
9:15 AM 46.4 °F 44.3 °F 41.0 °F 81% 29.99 in 4.0 mi NNE 4.6 mph - 0.13 in Rain Light Rain Showers
9:37 AM 48.2 °F - 44.6 °F 87% 29.98 in 6.0 mi NE 9.2 mph - 0.14 in   Mostly Cloudy
9:55 AM 51.1 °F - 44.1 °F 77% 29.96 in 10.0 mi ENE 8.1 mph - 0.14 in   Mostly Cloudy
10:55 AM 55.0 °F - 43.0 °F 64% 29.96 in 10.0 mi Variable 3.5 mph - N/A   Scattered Clouds
11:55 AM 57.0 °F - 41.0 °F 55% 29.94 in 10.0 mi NW 9.2 mph - N/A   Scattered Clouds
12:55 PM 57.0 °F - 42.1 °F 57% 29.93 in 10.0 mi NW 10.4 mph - N/A   Scattered Clouds
1:55 PM 57.0 °F - 42.1 °F 57% 29.92 in 10.0 mi NW 9.2 mph 17.3 mph N/A   Scattered Clouds
2:55 PM 57.0 °F - 42.1 °F 57% 29.92 in 10.0 mi NW 10.4 mph - N/A   Scattered Clouds
3:55 PM 55.9 °F - 41.0 °F 57% 29.92 in 10.0 mi NW 17.3 mph 23.0 mph N/A   Scattered Clouds
4:55 PM 53.1 °F - 39.9 °F 61% 29.93 in 10.0 mi NW 13.8 mph - N/A   Scattered Clouds
5:55 PM 51.1 °F - 39.9 °F 66% 29.95 in 10.0 mi NNW 9.2 mph - N/A   Partly Cloudy
6:55 PM 51.1 °F - 41.0 °F 68% 29.96 in 10.0 mi NNW 9.2 mph - N/A   Partly Cloudy
7:55 PM 51.1 °F - 39.9 °F 66% 29.97 in 10.0 mi NW 10.4 mph - N/A   Scattered Clouds
8:55 PM 50.0 °F - 42.1 °F 74% 29.99 in 10.0 mi NW 8.1 mph - N/A   Partly Cloudy
9:55 PM 50.0 °F - 41.0 °F 71% 29.99 in 10.0 mi NNE 6.9 mph - N/A   Scattered Clouds
10:55 PM 48.0 °F - 39.9 °F 74% 29.99 in 10.0 mi NNE 4.6 mph - N/A   Scattered Clouds
11:55 PM 46.9 °F - 39.9 °F 77% 30.00 in 10.0 mi NE 6.9 mph - N/A   Clear